Home   Weather   Watford   Past weeks

Flag for United Kingdom Past Weather in Watford, England, United Kingdom — Yesterday and Last 2 Weeks

Now
48 °F

Passing clouds.


Feels Like: 45 °F
Forecast: 45 / 60 °F
Wind: 7 mph from Southeast

Location: Northolt

Current Time: May 1, 2017 at 5:44:00 am

Latest Report: May 1, 2017 at 4:50 am


Visibility: N/A

Pressure: 29.53 "Hg

Humidity: 94%

Dew Point: 46 °F

Location of WatfordLocation

Past Weather in Watford — Graph

°F

Watford Temperature Yesterday

Maximum temperature yesterday: 64 °F (at 11:50 am)
Minimum temperature yesterday: 48 °F (at 5:50 am)
Average temperature yesterday: 56 °F

High & Low Weather Summary for the Past Weeks

 TemperatureHumidityPressure
High64 °F (Apr 30, 11:50 am)100% (Apr 27, 4:50 am)30.63 "Hg (Apr 27, 4:50 am)
Low30 °F (Apr 27, 4:50 am)26% (Apr 18, 3:50 pm)29.47 "Hg (Apr 30, 12:50 pm)
Average49 °F65%30.17 "Hg
* Reported Apr 16 3:50 am — May 1 3:50 am, Watford, Weather by CustomWeather, © 2017

Note: Actual official high and low records may vary slightly from our data, if they occured in-between our weather recording intervals... More about our weather records

Advertising

Watford Weather History for the Previous 24 Hours

Scroll right to see more
 ConditionsComfort  
Time TempWeatherWind HumidityBarometerVisibility
3:50 am
Mon, May 1
48 °FPassing clouds.7 mph100%29.50 "HgN/A
2:50 am48 °FOvercast.6 mph100%29.50 "HgN/A
1:50 am48 °FPassing clouds.6 mph94%29.50 "HgN/A
12:50 am50 °FPartly cloudy.N/A88%29.50 "HgN/A
11:50 pm
Sun, Apr 30
52 °FPassing clouds.N/A88%29.47 "HgN/A
10:50 pm54 °FPassing clouds.N/A77%29.47 "HgN/A
9:50 pm55 °FOvercast.N/A72%29.47 "HgN/A
8:50 pm55 °FLight rain. Passing clouds.15 mph72%29.47 "HgN/A
7:50 pm59 °FBroken clouds.15 mph48%29.47 "HgN/A
6:50 pm59 °FPartly sunny.16 mph42%29.47 "HgN/A
5:50 pm59 °FPartly sunny.14 mph42%29.47 "HgN/A
4:50 pm59 °FBroken clouds.15 mph45%29.47 "HgN/A
3:50 pm59 °FSunny.18 mph42%29.50 "Hg10 mi
2:50 pm61 °FSunny.13 mph45%29.50 "Hg10 mi
1:50 pm61 °FSunny.18 mph45%29.50 "Hg10 mi
12:50 pm63 °FPassing clouds.20 mph39%29.47 "HgN/A
11:50 am64 °FSunny.21 mph37%29.53 "Hg10 mi
10:50 am61 °FSunny.18 mph39%29.56 "Hg10 mi
9:50 am59 °FSunny.16 mph42%29.59 "Hg10 mi
8:50 am55 °FSunny.17 mph51%29.62 "Hg10 mi
7:50 am52 °FScattered clouds.N/A58%29.65 "HgN/A
6:50 am50 °FSunny.9 mph62%29.68 "Hg10 mi
5:50 am48 °FScattered clouds.N/A62%29.68 "HgN/A
Weather by CustomWeather, © 2017

See weather overviewHow to use our weather pages